Time,TemperatureF,DewpointF,PressureIn,WindDirection,WindDirectionDegrees,WindSpeedMPH,WindSpeedGustMPH,Humidity,HourlyPrecipIn,Conditions,Clouds,dailyrainin,SoftwareType,DateUTC
2013-10-21 00:00:00,41.5,37.9,30.07,West,277,0.0,0.0,87,0.00,,,0.01,meteobridge,2013-10-21 04:00:00,
2013-10-21 00:01:00,41.5,37.9,30.07,West,277,0.0,0.0,87,0.00,,,0.01,meteobridge,2013-10-21 04:01:00,
2013-10-21 00:02:00,41.5,37.9,30.07,West,277,0.0,0.0,87,0.00,,,0.01,meteobridge,2013-10-21 04:02:00,
2013-10-21 00:06:00,41.4,37.8,30.07,West,277,0.0,0.0,87,0.00,,,0.01,meteobridge,2013-10-21 04:06:00,
2013-10-21 00:08:00,41.4,37.8,30.07,West,277,0.0,0.0,87,0.00,,,0.01,meteobridge,2013-10-21 04:08:00,
2013-10-21 00:10:00,41.4,38.1,30.07,West,277,0.0,0.0,88,0.00,,,0.01,meteobridge,2013-10-21 04:10:00,
2013-10-21 00:15:00,41.2,37.9,30.07,West,277,0.0,0.0,88,0.00,,,0.01,meteobridge,2013-10-21 04:15:00,
2013-10-21 00:20:00,41.2,37.9,30.07,West,277,0.0,0.0,88,0.00,,,0.01,meteobridge,2013-10-21 04:20:00,
2013-10-21 00:26:00,41.0,37.8,30.07,West,277,0.0,0.0,88,0.00,,,0.01,meteobridge,2013-10-21 04:26:00,
2013-10-21 00:31:00,40.8,37.6,30.07,West,277,0.0,0.0,88,0.00,,,0.01,meteobridge,2013-10-21 04:31:00,
2013-10-21 00:37:00,40.8,37.6,30.07,West,277,0.0,0.0,88,0.00,,,0.01,meteobridge,2013-10-21 04:37:00,
2013-10-21 00:42:00,40.6,37.6,30.07,West,277,0.0,0.0,89,0.00,,,0.01,meteobridge,2013-10-21 04:42:00,
2013-10-21 00:47:00,40.6,37.6,30.07,West,277,0.0,0.0,89,0.00,,,0.01,meteobridge,2013-10-21 04:47:00,
2013-10-21 00:53:00,40.5,37.4,30.08,West,277,0.0,0.0,89,0.00,,,0.01,meteobridge,2013-10-21 04:53:00,
2013-10-21 00:58:00,40.3,37.6,30.08,West,277,0.0,0.0,90,0.00,,,0.01,meteobridge,2013-10-21 04:58:00,
2013-10-21 01:04:00,40.3,37.6,30.08,West,277,0.0,0.0,90,0.00,,,0.01,meteobridge,2013-10-21 05:04:00,
2013-10-21 01:09:00,40.1,37.4,30.08,West,277,0.0,0.0,90,0.00,,,0.01,meteobridge,2013-10-21 05:09:00,
2013-10-21 01:14:00,39.9,37.2,30.08,West,277,0.0,0.0,90,0.00,,,0.01,meteobridge,2013-10-21 05:14:00,
2013-10-21 01:20:00,39.9,37.2,30.08,West,277,0.0,0.0,90,0.00,,,0.01,meteobridge,2013-10-21 05:20:00,
2013-10-21 01:26:00,39.7,37.4,30.08,West,277,0.0,0.0,91,0.00,,,0.01,meteobridge,2013-10-21 05:26:00,
2013-10-21 01:31:00,39.7,37.4,30.08,West,277,0.0,0.0,91,0.00,,,0.01,meteobridge,2013-10-21 05:31:00,
2013-10-21 01:36:00,39.6,37.2,30.08,West,277,0.0,0.0,91,0.00,,,0.01,meteobridge,2013-10-21 05:36:00,
2013-10-21 01:42:00,39.6,37.2,30.08,West,277,0.0,0.0,91,0.00,,,0.01,meteobridge,2013-10-21 05:42:00,
2013-10-21 01:47:00,39.6,37.2,30.09,West,277,0.0,0.0,91,0.00,,,0.01,meteobridge,2013-10-21 05:47:00,
2013-10-21 01:52:00,39.4,37.2,30.09,West,277,0.0,0.0,92,0.00,,,0.01,meteobridge,2013-10-21 05:52:00,
2013-10-21 01:58:00,39.4,37.2,30.09,West,277,0.0,0.0,92,0.00,,,0.01,meteobridge,2013-10-21 05:58:00,
2013-10-21 02:03:00,39.4,37.2,30.09,West,277,0.0,0.9,92,0.00,,,0.01,meteobridge,2013-10-21 06:03:00,
2013-10-21 02:08:00,39.4,37.2,30.09,West,277,0.0,0.9,92,0.00,,,0.01,meteobridge,2013-10-21 06:08:00,
2013-10-21 02:13:00,39.4,37.6,30.09,West,277,0.0,0.0,93,0.00,,,0.01,meteobridge,2013-10-21 06:13:00,
2013-10-21 02:19:00,39.4,37.6,30.09,West,277,0.0,0.0,93,0.00,,,0.01,meteobridge,2013-10-21 06:19:00,
2013-10-21 02:24:00,39.2,37.4,30.09,West,277,0.0,0.0,93,0.00,,,0.01,meteobridge,2013-10-21 06:24:00,
2013-10-21 02:29:00,39.2,37.4,30.09,West,277,0.0,0.0,93,0.00,,,0.01,meteobridge,2013-10-21 06:29:00,
2013-10-21 02:34:00,39.2,37.4,30.09,West,277,0.0,0.0,93,0.00,,,0.01,meteobridge,2013-10-21 06:34:00,
2013-10-21 02:40:00,39.2,37.4,30.09,West,277,0.0,0.0,93,0.00,,,0.01,meteobridge,2013-10-21 06:40:00,
2013-10-21 02:45:00,39.0,37.2,30.09,West,277,0.0,0.0,93,0.00,,,0.01,meteobridge,2013-10-21 06:45:00,
2013-10-21 02:50:00,39.0,37.2,30.09,West,277,0.0,0.0,93,0.00,,,0.01,meteobridge,2013-10-21 06:50:00,
2013-10-21 02:56:00,39.0,37.2,30.09,West,277,0.0,0.0,93,0.00,,,0.01,meteobridge,2013-10-21 06:56:00,
2013-10-21 03:01:00,39.0,37.2,30.09,West,277,0.0,0.9,93,0.00,,,0.01,meteobridge,2013-10-21 07:01:00,
2013-10-21 03:06:00,39.0,37.2,30.09,West,277,0.0,0.0,93,0.00,,,0.01,meteobridge,2013-10-21 07:06:00,
2013-10-21 03:11:00,39.0,37.2,30.09,West,277,0.0,0.0,93,0.00,,,0.01,meteobridge,2013-10-21 07:11:00,
2013-10-21 03:16:00,39.0,37.4,30.09,West,277,0.9,0.9,94,0.00,,,0.01,meteobridge,2013-10-21 07:16:00,
2013-10-21 03:22:00,38.8,37.2,30.10,West,277,0.9,2.0,94,0.00,,,0.01,meteobridge,2013-10-21 07:22:00,
2013-10-21 03:27:00,38.8,37.2,30.10,West,277,2.0,2.0,94,0.00,,,0.01,meteobridge,2013-10-21 07:27:00,
2013-10-21 03:33:00,39.0,37.4,30.10,West,277,0.9,0.9,94,0.00,,,0.01,meteobridge,2013-10-21 07:33:00,
2013-10-21 03:38:00,39.0,37.4,30.10,West,277,0.9,2.0,94,0.00,,,0.01,meteobridge,2013-10-21 07:38:00,
2013-10-21 03:43:00,39.0,37.4,30.10,West,277,0.0,0.9,94,0.00,,,0.01,meteobridge,2013-10-21 07:43:00,
2013-10-21 03:48:00,39.0,37.4,30.10,West,277,0.9,0.9,94,0.00,,,0.01,meteobridge,2013-10-21 07:48:00,
2013-10-21 03:53:00,38.8,37.2,30.10,West,277,2.0,2.0,94,0.00,,,0.01,meteobridge,2013-10-21 07:53:00,
2013-10-21 03:58:00,38.8,37.2,30.10,West,277,0.0,2.0,94,0.00,,,0.01,meteobridge,2013-10-21 07:58:00,
2013-10-21 04:03:00,38.8,37.2,30.10,West,277,2.9,2.9,94,0.00,,,0.01,meteobridge,2013-10-21 08:03:00,
2013-10-21 04:09:00,38.8,37.2,30.11,West,277,0.9,2.0,94,0.00,,,0.01,meteobridge,2013-10-21 08:09:00,
2013-10-21 04:14:00,38.8,37.2,30.11,West,277,0.9,2.0,94,0.00,,,0.01,meteobridge,2013-10-21 08:14:00,
2013-10-21 04:19:00,38.8,37.2,30.10,West,277,2.0,2.0,94,0.00,,,0.01,meteobridge,2013-10-21 08:19:00,
2013-10-21 04:24:00,38.8,37.2,30.10,West,277,0.9,2.0,94,0.00,,,0.01,meteobridge,2013-10-21 08:24:00,
2013-10-21 04:30:00,38.8,37.2,30.11,West,277,2.0,2.0,94,0.00,,,0.01,meteobridge,2013-10-21 08:30:00,
2013-10-21 04:35:00,38.8,37.2,30.10,West,277,0.9,2.0,94,0.00,,,0.01,meteobridge,2013-10-21 08:35:00,
2013-10-21 04:41:00,38.8,37.2,30.10,West,277,0.9,0.9,94,0.00,,,0.01,meteobridge,2013-10-21 08:41:00,
2013-10-21 04:46:00,38.8,37.2,30.11,West,277,0.0,0.0,94,0.00,,,0.01,meteobridge,2013-10-21 08:46:00,
2013-10-21 04:51:00,38.8,37.2,30.11,West,277,0.0,0.0,94,0.00,,,0.01,meteobridge,2013-10-21 08:51:00,
2013-10-21 04:56:00,38.8,37.2,30.11,West,277,0.0,0.0,94,0.00,,,0.01,meteobridge,2013-10-21 08:56:00,
2013-10-21 05:02:00,38.8,37.2,30.11,West,277,0.0,0.0,94,0.00,,,0.01,meteobridge,2013-10-21 09:02:00,
2013-10-21 05:07:00,38.8,37.2,30.11,West,277,0.0,0.9,94,0.00,,,0.01,meteobridge,2013-10-21 09:07:00,
2013-10-21 05:12:00,38.7,37.0,30.11,West,277,2.0,2.0,94,0.00,,,0.01,meteobridge,2013-10-21 09:12:00,
2013-10-21 05:17:00,38.7,37.0,30.11,West,277,0.0,2.0,94,0.00,,,0.01,meteobridge,2013-10-21 09:17:00,
2013-10-21 05:23:00,38.7,37.0,30.11,West,277,0.0,2.0,94,0.00,,,0.01,meteobridge,2013-10-21 09:23:00,
2013-10-21 05:28:00,38.5,36.9,30.12,West,277,0.9,2.0,94,0.00,,,0.01,meteobridge,2013-10-21 09:28:00,
2013-10-21 05:33:00,38.5,36.9,30.12,West,277,0.9,2.0,94,0.00,,,0.01,meteobridge,2013-10-21 09:33:00,
2013-10-21 05:39:00,38.5,37.2,30.12,West,277,2.0,2.0,95,0.00,,,0.01,meteobridge,2013-10-21 09:39:00,
2013-10-21 05:44:00,38.5,37.2,30.12,West,278,0.9,0.9,95,0.00,,,0.01,meteobridge,2013-10-21 09:44:00,
2013-10-21 05:49:00,38.7,37.4,30.12,WNW,286,0.0,0.9,95,0.00,,,0.01,meteobridge,2013-10-21 09:49:00,
2013-10-21 05:54:00,38.7,37.4,30.12,WNW,284,0.0,0.9,95,0.00,,,0.01,meteobridge,2013-10-21 09:54:00,
2013-10-21 06:00:00,38.7,37.4,30.12,WNW,284,0.0,0.0,95,0.00,,,0.01,meteobridge,2013-10-21 10:00:00,
2013-10-21 06:05:00,38.7,37.4,30.12,WNW,284,0.0,0.0,95,0.00,,,0.01,meteobridge,2013-10-21 10:05:00,
2013-10-21 06:10:00,38.7,37.4,30.12,WNW,284,0.0,0.0,95,0.00,,,0.01,meteobridge,2013-10-21 10:10:00,
2013-10-21 06:16:00,38.7,37.4,30.13,WNW,284,0.0,0.0,95,0.00,,,0.01,meteobridge,2013-10-21 10:16:00,
2013-10-21 06:21:00,38.7,37.4,30.13,WNW,284,0.0,0.0,95,0.00,,,0.01,meteobridge,2013-10-21 10:21:00,
2013-10-21 06:26:00,38.7,37.4,30.13,WNW,284,0.0,0.0,95,0.00,,,0.01,meteobridge,2013-10-21 10:26:00,
2013-10-21 06:31:00,38.5,36.9,30.13,WNW,284,0.0,0.0,94,0.00,,,0.01,meteobridge,2013-10-21 10:31:00,
2013-10-21 06:37:00,38.5,36.9,30.13,WNW,284,0.0,0.0,94,0.00,,,0.01,meteobridge,2013-10-21 10:37:00,
2013-10-21 06:42:00,38.5,36.9,30.13,WNW,284,0.0,0.0,94,0.00,,,0.01,meteobridge,2013-10-21 10:42:00,
2013-10-21 06:47:00,38.3,36.7,30.13,WNW,284,0.0,0.0,94,0.00,,,0.01,meteobridge,2013-10-21 10:47:00,
2013-10-21 06:52:00,38.1,36.5,30.13,WNW,284,0.0,0.0,94,0.00,,,0.01,meteobridge,2013-10-21 10:52:00,
2013-10-21 06:58:00,38.1,36.5,30.14,WNW,284,0.0,0.0,94,0.00,,,0.01,meteobridge,2013-10-21 10:58:00,
2013-10-21 07:03:00,38.1,36.9,30.14,WNW,284,0.0,0.0,95,0.00,,,0.01,meteobridge,2013-10-21 11:03:00,
2013-10-21 07:08:00,37.9,36.3,30.14,WNW,284,0.0,0.0,94,0.00,,,0.01,meteobridge,2013-10-21 11:08:00,
2013-10-21 07:13:00,37.9,36.3,30.14,WNW,284,0.0,0.0,94,0.00,,,0.01,meteobridge,2013-10-21 11:13:00,
2013-10-21 07:18:00,37.9,36.3,30.14,WNW,284,0.0,0.0,94,0.00,,,0.01,meteobridge,2013-10-21 11:18:00,
2013-10-21 07:24:00,37.8,36.1,30.14,WNW,284,0.0,0.0,94,0.00,,,0.01,meteobridge,2013-10-21 11:24:00,
2013-10-21 07:29:00,37.8,36.1,30.14,WNW,284,0.0,0.0,94,0.00,,,0.01,meteobridge,2013-10-21 11:29:00,
2013-10-21 07:34:00,37.6,36.0,30.14,WNW,284,0.0,0.0,94,0.00,,,0.01,meteobridge,2013-10-21 11:34:00,
2013-10-21 07:40:00,37.6,36.0,30.14,WNW,284,0.0,0.0,94,0.00,,,0.01,meteobridge,2013-10-21 11:40:00,
2013-10-21 07:46:00,37.4,36.1,30.14,WNW,284,0.0,0.0,95,0.00,,,0.01,meteobridge,2013-10-21 11:46:00,
2013-10-21 07:51:00,37.4,36.1,30.15,WNW,284,0.0,0.0,95,0.00,,,0.01,meteobridge,2013-10-21 11:51:00,
2013-10-21 07:56:00,37.4,36.1,30.15,WNW,284,0.0,0.0,95,0.00,,,0.01,meteobridge,2013-10-21 11:56:00,
2013-10-21 08:01:00,37.4,36.1,30.15,WNW,284,0.0,0.0,95,0.00,,,0.01,meteobridge,2013-10-21 12:01:00,
2013-10-21 08:07:00,37.4,36.1,30.15,WNW,284,0.0,0.0,95,0.00,,,0.01,meteobridge,2013-10-21 12:07:00,
2013-10-21 08:12:00,37.6,36.5,30.15,WNW,284,0.0,0.9,96,0.00,,,0.01,meteobridge,2013-10-21 12:12:00,
2013-10-21 08:18:00,37.8,36.7,30.15,WNW,284,0.0,0.0,96,0.00,,,0.01,meteobridge,2013-10-21 12:18:00,
2013-10-21 08:24:00,37.9,36.9,30.16,WNW,284,0.0,0.0,96,0.00,,,0.01,meteobridge,2013-10-21 12:24:00,
2013-10-21 08:29:00,38.1,37.4,30.15,WNW,284,0.0,0.0,97,0.00,,,0.01,meteobridge,2013-10-21 12:29:00,
2013-10-21 08:34:00,38.7,37.9,30.15,WNW,284,0.0,0.0,97,0.00,,,0.01,meteobridge,2013-10-21 12:34:00,
2013-10-21 08:39:00,39.0,38.3,30.16,WNW,284,0.0,0.0,97,0.00,,,0.01,meteobridge,2013-10-21 12:39:00,
2013-10-21 08:45:00,39.7,39.0,30.16,WNW,284,0.0,0.0,97,0.00,,,0.01,meteobridge,2013-10-21 12:45:00,
2013-10-21 08:50:00,40.1,39.4,30.16,WNW,284,0.0,0.0,97,0.00,,,0.01,meteobridge,2013-10-21 12:50:00,
2013-10-21 08:55:00,40.5,39.7,30.16,WNW,284,0.0,0.0,97,0.00,,,0.01,meteobridge,2013-10-21 12:55:00,
2013-10-21 09:00:00,41.0,39.9,30.16,WNW,284,0.0,0.9,96,0.00,,,0.01,meteobridge,2013-10-21 13:00:00,
2013-10-21 09:05:00,41.5,40.5,30.16,WNW,284,0.0,0.9,96,0.00,,,0.01,meteobridge,2013-10-21 13:05:00,
2013-10-21 09:11:00,42.1,41.0,30.16,SW,222,0.9,2.9,96,0.00,,,0.01,meteobridge,2013-10-21 13:11:00,
2013-10-21 09:16:00,42.6,41.4,30.16,West,280,0.9,2.9,95,0.00,,,0.01,meteobridge,2013-10-21 13:16:00,
2013-10-21 09:22:00,43.5,41.7,30.16,West,273,0.0,2.9,93,0.00,,,0.01,meteobridge,2013-10-21 13:22:00,
2013-10-21 09:27:00,44.8,42.3,30.16,WNW,283,0.0,2.0,91,0.00,,,0.01,meteobridge,2013-10-21 13:27:00,
2013-10-21 09:33:00,45.3,42.6,30.16,WNW,283,0.0,0.9,90,0.00,,,0.01,meteobridge,2013-10-21 13:33:00,
2013-10-21 09:38:00,46.0,43.0,30.16,WNW,283,0.0,0.9,89,0.00,,,0.01,meteobridge,2013-10-21 13:38:00,
2013-10-21 09:43:00,46.8,43.3,30.15,West,268,0.9,2.0,88,0.00,,,0.01,meteobridge,2013-10-21 13:43:00,
2013-10-21 09:48:00,47.1,43.5,30.15,West,262,0.0,0.9,87,0.00,,,0.01,meteobridge,2013-10-21 13:48:00,
2013-10-21 09:54:00,47.7,43.0,30.16,West,262,0.0,0.9,84,0.00,,,0.01,meteobridge,2013-10-21 13:54:00,
2013-10-21 09:59:00,48.9,43.3,30.15,WNW,292,0.0,2.0,81,0.00,,,0.01,meteobridge,2013-10-21 13:59:00,
2013-10-21 10:04:00,49.8,44.2,30.15,WNW,288,0.0,2.9,81,0.00,,,0.01,meteobridge,2013-10-21 14:04:00,
2013-10-21 10:09:00,50.4,43.7,30.15,WNW,285,0.9,0.9,78,0.00,,,0.01,meteobridge,2013-10-21 14:09:00,
2013-10-21 10:15:00,51.1,43.5,30.15,NW,319,0.0,2.9,75,0.00,,,0.01,meteobridge,2013-10-21 14:15:00,
2013-10-21 10:20:00,52.0,43.5,30.15,WNW,301,0.0,2.0,73,0.00,,,0.01,meteobridge,2013-10-21 14:20:00,
2013-10-21 10:25:00,52.7,43.2,30.15,WSW,244,0.9,2.9,70,0.00,,,0.01,meteobridge,2013-10-21 14:25:00,
2013-10-21 10:31:00,53.2,42.6,30.14,WNW,300,0.9,2.9,67,0.00,,,0.01,meteobridge,2013-10-21 14:31:00,
2013-10-21 10:36:00,53.8,43.2,30.14,WSW,255,0.9,2.9,67,0.00,,,0.01,meteobridge,2013-10-21 14:36:00,
2013-10-21 10:41:00,54.1,42.6,30.14,WNW,284,0.9,2.0,65,0.00,,,0.01,meteobridge,2013-10-21 14:41:00,
2013-10-21 10:46:00,54.9,43.0,30.14,WSW,256,2.9,4.0,64,0.00,,,0.01,meteobridge,2013-10-21 14:46:00,
2013-10-21 10:51:00,55.2,42.1,30.14,West,269,0.0,2.0,61,0.00,,,0.01,meteobridge,2013-10-21 14:51:00,
2013-10-21 10:57:00,55.6,42.8,30.14,WSW,248,0.9,4.0,62,0.00,,,0.01,meteobridge,2013-10-21 14:57:00,
2013-10-21 11:02:00,55.9,42.6,30.14,WSW,252,0.9,0.9,61,0.00,,,0.01,meteobridge,2013-10-21 15:02:00,
2013-10-21 11:07:00,56.1,42.4,30.14,WSW,240,0.9,2.0,60,0.00,,,0.01,meteobridge,2013-10-21 15:07:00,
2013-10-21 11:13:00,56.5,41.9,30.14,SSW,192,0.9,2.9,58,0.00,,,0.01,meteobridge,2013-10-21 15:13:00,
2013-10-21 11:18:00,56.8,43.5,30.14,WSW,238,2.0,2.9,61,0.00,,,0.01,meteobridge,2013-10-21 15:18:00,
2013-10-21 11:23:00,57.2,42.6,30.14,WSW,249,2.0,4.0,58,0.00,,,0.01,meteobridge,2013-10-21 15:23:00,
2013-10-21 11:29:00,57.6,41.9,30.14,WNW,293,2.9,4.0,56,0.00,,,0.01,meteobridge,2013-10-21 15:29:00,
2013-10-21 11:34:00,57.9,42.3,30.13,NW,311,0.9,8.1,56,0.00,,,0.01,meteobridge,2013-10-21 15:34:00,
2013-10-21 11:40:00,58.3,42.3,30.13,WSW,248,2.0,4.9,55,0.00,,,0.01,meteobridge,2013-10-21 15:40:00,
2013-10-21 11:45:00,58.6,41.5,30.13,SW,219,0.0,2.0,53,0.00,,,0.01,meteobridge,2013-10-21 15:45:00,
2013-10-21 11:50:00,58.8,41.2,30.13,SW,225,0.9,6.0,52,0.00,,,0.01,meteobridge,2013-10-21 15:50:00,
2013-10-21 11:56:00,59.2,41.5,30.12,West,272,2.0,6.0,52,0.00,,,0.01,meteobridge,2013-10-21 15:56:00,
2013-10-21 12:01:00,59.4,41.2,30.12,WSW,251,4.0,8.1,51,0.00,,,0.01,meteobridge,2013-10-21 16:01:00,
2013-10-21 12:06:00,59.5,40.3,30.12,SSW,210,2.9,4.0,49,0.00,,,0.01,meteobridge,2013-10-21 16:06:00,
2013-10-21 12:12:00,59.7,40.5,30.12,SW,233,2.9,2.9,49,0.00,,,0.01,meteobridge,2013-10-21 16:12:00,
2013-10-21 12:17:00,60.1,40.3,30.12,SW,225,2.0,6.0,48,0.00,,,0.01,meteobridge,2013-10-21 16:17:00,
2013-10-21 12:22:00,60.3,40.5,30.12,WSW,244,2.0,6.9,48,0.00,,,0.01,meteobridge,2013-10-21 16:22:00,
2013-10-21 12:27:00,60.4,40.6,30.11,SSW,203,2.0,4.9,48,0.00,,,0.01,meteobridge,2013-10-21 16:27:00,
2013-10-21 12:33:00,60.4,42.3,30.11,WSW,256,4.9,6.0,51,0.00,,,0.01,meteobridge,2013-10-21 16:33:00,
2013-10-21 12:38:00,60.6,39.7,30.11,West,263,2.0,6.0,46,0.00,,,0.01,meteobridge,2013-10-21 16:38:00,
2013-10-21 12:44:00,61.0,40.1,30.11,SW,232,2.9,4.0,46,0.00,,,0.01,meteobridge,2013-10-21 16:44:00,
2013-10-21 12:49:00,61.0,41.2,30.11,WSW,252,0.0,4.0,48,0.00,,,0.01,meteobridge,2013-10-21 16:49:00,
2013-10-21 12:54:00,61.2,41.4,30.11,WSW,238,0.9,4.0,48,0.00,,,0.01,meteobridge,2013-10-21 16:54:00,
2013-10-21 12:59:00,61.2,40.8,30.10,NNW,331,2.9,6.9,47,0.00,,,0.01,meteobridge,2013-10-21 16:59:00,
2013-10-21 13:05:00,61.2,41.9,30.10,West,276,2.9,6.9,49,0.00,,,0.01,meteobridge,2013-10-21 17:05:00,
2013-10-21 13:10:00,61.3,42.1,30.10,SW,223,4.9,4.9,49,0.00,,,0.01,meteobridge,2013-10-21 17:10:00,
2013-10-21 13:16:00,61.5,41.2,30.09,SW,216,0.9,4.9,47,0.00,,,0.01,meteobridge,2013-10-21 17:16:00,
2013-10-21 13:21:00,61.5,40.5,30.09,SW,216,0.9,4.0,46,0.00,,,0.01,meteobridge,2013-10-21 17:21:00,
2013-10-21 13:26:00,61.9,39.7,30.09,SSW,211,2.9,4.0,44,0.00,,,0.01,meteobridge,2013-10-21 17:26:00,
2013-10-21 13:31:00,61.9,39.7,30.09,NW,305,4.0,4.0,44,0.00,,,0.01,meteobridge,2013-10-21 17:31:00,
2013-10-21 13:37:00,62.1,39.4,30.09,West,269,4.0,4.9,43,0.00,,,0.01,meteobridge,2013-10-21 17:37:00,
2013-10-21 13:42:00,62.1,39.9,30.08,SSW,192,0.0,2.9,44,0.00,,,0.01,meteobridge,2013-10-21 17:42:00,
2013-10-21 13:47:00,62.2,39.4,30.08,West,277,0.9,4.9,43,0.00,,,0.01,meteobridge,2013-10-21 17:47:00,
2013-10-21 13:53:00,62.2,40.6,30.08,WSW,248,0.9,4.9,45,0.00,,,0.01,meteobridge,2013-10-21 17:53:00,
2013-10-21 13:58:00,62.2,39.4,30.07,WSW,252,0.9,4.0,43,0.00,,,0.01,meteobridge,2013-10-21 17:58:00,
2013-10-21 14:03:00,62.4,40.3,30.07,SW,226,4.0,4.0,44,0.00,,,0.01,meteobridge,2013-10-21 18:03:00,
2013-10-21 14:08:00,62.8,39.9,30.07,NNW,329,0.9,13.0,43,0.00,,,0.01,meteobridge,2013-10-21 18:08:00,
2013-10-21 14:14:00,62.8,39.9,30.07,WSW,251,2.9,4.0,43,0.00,,,0.01,meteobridge,2013-10-21 18:14:00,
2013-10-21 14:19:00,62.8,38.7,30.07,SSW,207,2.9,4.9,41,0.00,,,0.01,meteobridge,2013-10-21 18:19:00,
2013-10-21 14:24:00,62.8,38.7,30.07,WSW,240,0.9,2.9,41,0.00,,,0.01,meteobridge,2013-10-21 18:24:00,
2013-10-21 14:30:00,62.8,40.5,30.07,SW,228,0.9,4.9,44,0.00,,,0.01,meteobridge,2013-10-21 18:30:00,
2013-10-21 14:35:00,62.8,39.4,30.07,West,281,0.0,6.0,42,0.00,,,0.01,meteobridge,2013-10-21 18:35:00,
2013-10-21 14:40:00,62.6,39.2,30.07,NW,306,0.9,4.9,42,0.00,,,0.01,meteobridge,2013-10-21 18:40:00,
2013-10-21 14:45:00,62.6,39.2,30.06,WSW,254,2.9,2.9,42,0.00,,,0.01,meteobridge,2013-10-21 18:45:00,
2013-10-21 14:51:00,62.8,39.4,30.07,WSW,244,0.9,4.9,42,0.00,,,0.01,meteobridge,2013-10-21 18:51:00,
2013-10-21 14:56:00,62.8,38.7,30.06,SW,219,0.0,2.9,41,0.00,,,0.01,meteobridge,2013-10-21 18:56:00,
2013-10-21 15:01:00,62.8,39.4,30.06,SW,217,2.0,4.0,42,0.00,,,0.01,meteobridge,2013-10-21 19:01:00,
2013-10-21 15:06:00,62.6,39.2,30.06,SW,231,4.0,6.0,42,0.00,,,0.01,meteobridge,2013-10-21 19:06:00,
2013-10-21 15:12:00,62.4,39.6,30.06,SW,214,2.0,6.0,43,0.00,,,0.01,meteobridge,2013-10-21 19:12:00,
2013-10-21 15:17:00,62.4,39.0,30.06,WNW,292,2.0,6.0,42,0.00,,,0.01,meteobridge,2013-10-21 19:17:00,
2013-10-21 15:22:00,62.6,39.2,30.05,SW,218,2.9,4.9,42,0.00,,,0.01,meteobridge,2013-10-21 19:22:00,
2013-10-21 15:27:00,62.8,39.9,30.05,WSW,255,2.9,6.9,43,0.00,,,0.01,meteobridge,2013-10-21 19:27:00,
2013-10-21 15:33:00,62.6,37.9,30.05,SW,230,2.0,4.0,40,0.00,,,0.01,meteobridge,2013-10-21 19:33:00,
2013-10-21 15:38:00,62.4,39.0,30.04,South,175,2.9,4.0,42,0.00,,,0.01,meteobridge,2013-10-21 19:38:00,
2013-10-21 15:43:00,62.4,39.6,30.04,WNW,282,0.0,2.9,43,0.00,,,0.01,meteobridge,2013-10-21 19:43:00,
2013-10-21 15:48:00,62.4,39.0,30.04,SSW,213,0.9,4.9,42,0.00,,,0.01,meteobridge,2013-10-21 19:48:00,
2013-10-21 15:54:00,62.4,39.0,30.04,West,266,0.9,2.9,42,0.00,,,0.01,meteobridge,2013-10-21 19:54:00,
2013-10-21 15:59:00,62.4,39.6,30.04,SW,217,2.0,2.9,43,0.00,,,0.01,meteobridge,2013-10-21 19:59:00,
2013-10-21 16:05:00,62.4,39.0,30.03,West,278,0.9,2.9,42,0.00,,,0.01,meteobridge,2013-10-21 20:05:00,
2013-10-21 16:10:00,62.4,39.0,30.03,SSW,211,0.9,2.0,42,0.00,,,0.01,meteobridge,2013-10-21 20:10:00,
2013-10-21 16:15:00,62.4,38.5,30.03,South,185,0.0,2.9,41,0.00,,,0.01,meteobridge,2013-10-21 20:15:00,
2013-10-21 16:21:00,62.2,38.8,30.03,South,171,2.0,2.9,42,0.00,,,0.01,meteobridge,2013-10-21 20:21:00,
2013-10-21 16:26:00,62.2,38.8,30.03,SSE,166,2.9,4.0,42,0.00,,,0.01,meteobridge,2013-10-21 20:26:00,
2013-10-21 16:32:00,62.1,39.4,30.03,South,175,0.9,4.0,43,0.00,,,0.01,meteobridge,2013-10-21 20:32:00,
2013-10-21 16:37:00,62.1,39.9,30.03,SW,232,0.9,2.0,44,0.00,,,0.01,meteobridge,2013-10-21 20:37:00,
2013-10-21 16:42:00,61.9,40.8,30.03,WSW,244,0.9,2.9,46,0.00,,,0.01,meteobridge,2013-10-21 20:42:00,
2013-10-21 16:48:00,61.7,39.0,30.03,WSW,248,0.9,4.0,43,0.00,,,0.01,meteobridge,2013-10-21 20:48:00,
2013-10-21 16:53:00,61.5,38.8,30.03,SSW,200,0.9,2.0,43,0.00,,,0.01,meteobridge,2013-10-21 20:53:00,
2013-10-21 16:59:00,61.3,40.5,30.04,SE,144,6.9,8.1,46,0.00,,,0.01,meteobridge,2013-10-21 20:59:00,
2013-10-21 17:04:00,61.2,39.7,30.04,SE,146,0.9,8.1,45,0.00,,,0.01,meteobridge,2013-10-21 21:04:00,
2013-10-21 17:09:00,61.0,40.1,30.04,SSE,155,0.0,8.1,46,0.00,,,0.01,meteobridge,2013-10-21 21:09:00,
2013-10-21 17:15:00,60.6,39.7,30.04,South,171,2.9,2.9,46,0.00,,,0.01,meteobridge,2013-10-21 21:15:00,
2013-10-21 17:20:00,60.4,40.1,30.04,SSE,155,0.9,4.9,47,0.00,,,0.01,meteobridge,2013-10-21 21:20:00,
2013-10-21 17:25:00,60.3,39.4,30.04,SSE,161,0.9,4.0,46,0.00,,,0.01,meteobridge,2013-10-21 21:25:00,
2013-10-21 17:30:00,60.1,39.7,30.04,SSE,158,0.0,2.0,47,0.00,,,0.01,meteobridge,2013-10-21 21:30:00,
2013-10-21 17:36:00,59.7,39.4,30.04,SSE,159,0.0,6.0,47,0.00,,,0.01,meteobridge,2013-10-21 21:36:00,
2013-10-21 17:41:00,59.4,39.7,30.04,South,186,4.0,4.0,48,0.00,,,0.01,meteobridge,2013-10-21 21:41:00,
2013-10-21 17:47:00,59.2,39.6,30.04,SSE,158,0.0,0.9,48,0.00,,,0.01,meteobridge,2013-10-21 21:47:00,
2013-10-21 17:52:00,58.8,39.7,30.04,South,174,0.0,4.9,49,0.00,,,0.01,meteobridge,2013-10-21 21:52:00,
2013-10-21 17:57:00,58.5,39.9,30.04,SSE,165,2.0,2.0,50,0.00,,,0.01,meteobridge,2013-10-21 21:57:00,
2013-10-21 18:03:00,57.9,39.4,30.05,South,173,0.0,0.9,50,0.00,,,0.01,meteobridge,2013-10-21 22:03:00,
2013-10-21 18:08:00,57.6,40.1,30.04,South,179,0.0,2.0,52,0.00,,,0.01,meteobridge,2013-10-21 22:08:00,
2013-10-21 18:13:00,57.4,39.9,30.05,South,169,0.0,2.0,52,0.00,,,0.01,meteobridge,2013-10-21 22:13:00,
2013-10-21 18:18:00,57.0,39.6,30.05,South,169,0.0,0.9,52,0.00,,,0.01,meteobridge,2013-10-21 22:18:00,
2013-10-21 18:23:00,56.7,40.3,30.05,South,169,2.0,2.9,54,0.00,,,0.01,meteobridge,2013-10-21 22:23:00,
2013-10-21 18:28:00,56.1,40.1,30.05,South,169,0.9,4.0,55,0.00,,,0.01,meteobridge,2013-10-21 22:28:00,
2013-10-21 18:34:00,55.8,40.8,30.05,WSW,242,0.0,4.9,57,0.00,,,0.01,meteobridge,2013-10-21 22:34:00,
2013-10-21 18:40:00,55.6,41.0,30.05,SSW,198,0.0,2.0,58,0.00,,,0.01,meteobridge,2013-10-21 22:40:00,
2013-10-21 18:45:00,55.2,41.2,30.05,South,177,0.9,4.0,59,0.00,,,0.01,meteobridge,2013-10-21 22:45:00,
2013-10-21 18:50:00,55.0,41.4,30.05,SE,129,0.0,6.9,60,0.00,,,0.01,meteobridge,2013-10-21 22:50:00,
2013-10-21 18:55:00,54.9,41.7,30.05,SSE,165,4.9,6.0,61,0.00,,,0.01,meteobridge,2013-10-21 22:55:00,
2013-10-21 19:00:00,55.0,42.6,30.05,SSW,192,4.0,6.0,63,0.00,,,0.01,meteobridge,2013-10-21 23:00:00,
2013-10-21 19:05:00,55.0,43.2,30.05,South,169,2.9,8.1,64,0.00,,,0.01,meteobridge,2013-10-21 23:05:00,
2013-10-21 19:10:00,55.0,42.6,30.05,SSE,154,0.9,2.0,63,0.00,,,0.01,meteobridge,2013-10-21 23:10:00,
2013-10-21 19:16:00,54.9,43.3,30.05,South,179,8.9,8.9,65,0.00,,,0.01,meteobridge,2013-10-21 23:16:00,
2013-10-21 19:21:00,54.7,43.2,30.05,SSE,153,4.0,8.1,65,0.00,,,0.01,meteobridge,2013-10-21 23:21:00,
2013-10-21 19:26:00,54.7,43.5,30.05,SSW,211,0.9,4.9,66,0.00,,,0.01,meteobridge,2013-10-21 23:26:00,
2013-10-21 19:32:00,54.7,43.9,30.05,South,181,2.0,6.9,67,0.00,,,0.01,meteobridge,2013-10-21 23:32:00,
2013-10-21 19:37:00,54.5,43.7,30.05,South,177,2.0,8.1,67,0.00,,,0.01,meteobridge,2013-10-21 23:37:00,
2013-10-21 19:42:00,54.3,44.1,30.05,SE,144,4.0,4.9,68,0.00,,,0.01,meteobridge,2013-10-21 23:42:00,
2013-10-21 19:48:00,54.1,43.9,30.04,SSE,165,6.9,13.0,68,0.00,,,0.01,meteobridge,2013-10-21 23:48:00,
2013-10-21 19:53:00,54.1,43.9,30.04,SSE,154,2.0,8.1,68,0.00,,,0.01,meteobridge,2013-10-21 23:53:00,
2013-10-21 19:59:00,54.1,43.9,30.05,SE,136,0.9,4.9,68,0.00,,,0.01,meteobridge,2013-10-21 23:59:00,
2013-10-21 20:04:00,54.0,43.7,30.05,South,180,4.9,8.9,68,0.00,,,0.00,meteobridge,2013-10-22 00:04:00,
2013-10-21 20:09:00,54.0,44.1,30.05,South,177,2.0,10.1,69,0.00,,,0.00,meteobridge,2013-10-22 00:09:00,
2013-10-21 20:15:00,53.8,43.9,30.05,South,189,6.0,8.1,69,0.00,,,0.00,meteobridge,2013-10-22 00:15:00,
2013-10-21 20:20:00,53.6,44.1,30.05,SSE,151,4.0,10.1,70,0.00,,,0.00,meteobridge,2013-10-22 00:20:00,
2013-10-21 20:26:00,53.4,43.9,30.04,South,180,2.0,4.9,70,0.00,,,0.00,meteobridge,2013-10-22 00:26:00,
2013-10-21 20:31:00,53.2,43.7,30.05,South,182,0.9,4.0,70,0.00,,,0.00,meteobridge,2013-10-22 00:31:00,
2013-10-21 20:36:00,53.2,44.1,30.05,SE,146,2.0,6.0,71,0.00,,,0.00,meteobridge,2013-10-22 00:36:00,
2013-10-21 20:41:00,52.9,43.7,30.05,South,186,2.9,4.0,71,0.00,,,0.00,meteobridge,2013-10-22 00:41:00,
2013-10-21 20:47:00,52.7,43.9,30.05,South,175,6.0,6.9,72,0.00,,,0.00,meteobridge,2013-10-22 00:47:00,
2013-10-21 20:52:00,52.5,44.1,30.05,SSE,167,2.0,4.9,73,0.00,,,0.00,meteobridge,2013-10-22 00:52:00,
2013-10-21 20:57:00,52.5,44.1,30.05,SSE,148,6.0,8.9,73,0.00,,,0.00,meteobridge,2013-10-22 00:57:00,
2013-10-21 21:02:00,52.5,44.1,30.05,SSE,159,0.9,6.9,73,0.00,,,0.00,meteobridge,2013-10-22 01:02:00,
2013-10-21 21:08:00,52.3,44.2,30.05,South,173,2.0,6.0,74,0.00,,,0.00,meteobridge,2013-10-22 01:08:00,
2013-10-21 21:13:00,52.3,44.2,30.04,South,171,0.0,6.9,74,0.00,,,0.00,meteobridge,2013-10-22 01:13:00,
2013-10-21 21:18:00,52.2,44.4,30.04,South,185,4.9,6.0,75,0.00,,,0.00,meteobridge,2013-10-22 01:18:00,
2013-10-21 21:23:00,52.2,44.4,30.04,SSW,193,0.0,6.0,75,0.00,,,0.00,meteobridge,2013-10-22 01:23:00,
2013-10-21 21:29:00,52.0,44.6,30.04,South,180,4.0,6.0,76,0.00,,,0.00,meteobridge,2013-10-22 01:29:00,
2013-10-21 21:34:00,51.6,44.2,30.04,South,186,0.0,4.0,76,0.00,,,0.00,meteobridge,2013-10-22 01:34:00,
2013-10-21 21:39:00,51.4,44.1,30.04,South,170,0.0,2.9,76,0.00,,,0.00,meteobridge,2013-10-22 01:39:00,
2013-10-21 21:44:00,51.3,44.2,30.03,South,177,0.9,2.0,77,0.00,,,0.00,meteobridge,2013-10-22 01:44:00,
2013-10-21 21:50:00,51.1,44.4,30.04,South,178,0.0,2.0,78,0.00,,,0.00,meteobridge,2013-10-22 01:50:00,
2013-10-21 21:54:00,51.1,44.4,30.04,SE,130,0.0,2.9,78,0.00,,,0.00,meteobridge,2013-10-22 01:54:00,
2013-10-21 22:00:00,50.7,44.4,30.04,South,185,0.0,2.9,79,0.00,,,0.00,meteobridge,2013-10-22 02:00:00,
2013-10-21 22:05:00,50.5,44.2,30.04,South,173,0.9,0.9,79,0.00,,,0.00,meteobridge,2013-10-22 02:05:00,
2013-10-21 22:10:00,50.4,44.4,30.04,SSE,164,2.9,2.9,80,0.00,,,0.00,meteobridge,2013-10-22 02:10:00,
2013-10-21 22:16:00,50.0,44.4,30.04,South,176,2.9,2.9,81,0.00,,,0.00,meteobridge,2013-10-22 02:16:00,
2013-10-21 22:21:00,49.8,44.6,30.03,South,180,2.9,2.9,82,0.00,,,0.00,meteobridge,2013-10-22 02:21:00,
2013-10-21 22:26:00,49.6,44.8,30.03,SSE,161,0.9,4.9,83,0.00,,,0.00,meteobridge,2013-10-22 02:26:00,
2013-10-21 22:31:00,49.5,44.8,30.03,SSE,163,0.9,2.9,84,0.00,,,0.00,meteobridge,2013-10-22 02:31:00,
2013-10-21 22:37:00,49.5,44.8,30.03,South,169,0.0,0.9,84,0.00,,,0.00,meteobridge,2013-10-22 02:37:00,
2013-10-21 22:42:00,49.3,44.6,30.03,SE,134,0.0,0.0,84,0.00,,,0.00,meteobridge,2013-10-22 02:42:00,
2013-10-21 22:47:00,49.3,45.0,30.03,SE,140,0.0,2.0,85,0.00,,,0.00,meteobridge,2013-10-22 02:47:00,
2013-10-21 22:52:00,49.3,45.3,30.02,SSE,163,2.0,4.0,86,0.00,,,0.00,meteobridge,2013-10-22 02:52:00,
2013-10-21 22:57:00,49.3,45.0,30.02,SSE,158,0.0,4.0,85,0.00,,,0.00,meteobridge,2013-10-22 02:57:00,
2013-10-21 23:03:00,49.3,45.3,30.02,SSE,165,0.9,2.0,86,0.00,,,0.00,meteobridge,2013-10-22 03:03:00,
2013-10-21 23:08:00,49.3,45.5,30.02,SE,142,0.0,2.9,87,0.00,,,0.00,meteobridge,2013-10-22 03:08:00,
2013-10-21 23:13:00,49.3,45.5,30.02,South,175,0.0,2.9,87,0.00,,,0.00,meteobridge,2013-10-22 03:13:00,
2013-10-21 23:18:00,49.5,45.5,30.01,SSE,166,0.9,2.9,86,0.00,,,0.00,meteobridge,2013-10-22 03:18:00,
2013-10-21 23:23:00,49.5,45.5,30.01,SE,146,0.0,0.9,86,0.00,,,0.00,meteobridge,2013-10-22 03:23:00,
2013-10-21 23:28:00,49.5,45.7,30.01,SE,135,0.0,0.0,87,0.00,,,0.00,meteobridge,2013-10-22 03:28:00,
2013-10-21 23:33:00,49.5,45.7,30.01,SE,135,0.0,0.9,87,0.00,,,0.00,meteobridge,2013-10-22 03:33:00,
2013-10-21 23:38:00,49.3,45.5,30.01,SE,135,0.0,0.0,87,0.00,,,0.00,meteobridge,2013-10-22 03:38:00,
2013-10-21 23:43:00,49.3,45.5,30.01,SE,135,0.0,0.0,87,0.00,,,0.00,meteobridge,2013-10-22 03:43:00,
2013-10-21 23:49:00,49.1,45.3,30.01,SE,135,0.0,0.9,87,0.00,,,0.00,meteobridge,2013-10-22 03:49:00,
2013-10-21 23:54:00,48.7,45.3,30.00,SE,132,0.0,2.0,88,0.00,,,0.00,meteobridge,2013-10-22 03:54:00,